STARLINK-1309, 45414

Orbit data source: Space-Track

STARLINK-1309, 45414 is a payload satellite owned by SpaceX/Seattle (US) in LEO that was launched on Wed, 18 Mar 2020 UTC via an FALCON 9 launch vehicle from the Air Force Eastern Test Range (AFETR). Payload-class satellites include a variety of spacecraft equipped with specific instruments for various scientific and technological missions. These include communications satellites like Starlink; space stations such as the ISS; scientific satellites like the Hubble; Earth observation satellites from companies like Planet Labs, Umbra, and HawkEye 360; GPS; miniature CubeSats for education and research; and military/defense satellites.

Loading next visibility...
Identifier
45414, 2020-019BG
Orbit
LEO
Country
Flag of USUS
Related business
Manufacturer
SpaceX/Seattle
Mission
Operational Commercial Communications
Bus & Motor
STARLINK, Unknown motor
Mass
260 kg wet, ~248 kg dry
Launch date (UTC)
2020-03-18 (6 years ago)
Launch vehicle
FALCON 9
Launch site
Air Force Eastern Test Range (AFETR)
Object type
Payload
Rocket body
Debris
Shape & HBR
Box + 1 Pan, 10.1 m
Radar Cross Section
13.562 m², Large (>1 m²)

Expand to show TLE details & history
Last TLE update: 1 day ago

TLE from 1 day ago
0 STARLINK-1309
1 45414U 20019BG  25304.41785899  .00011386  00000-0  78173-3 0  9993
2 45414  53.0551 356.9436 0001337 100.5369 259.5771 15.06414526310366
Epoch: 2025-10-31T10:01Z
TLE epoch observation values (Epoch: 2025-10-31T10:01:43.016Z)
Latitude
-0.00001°
Longitude
166.55178°
Altitude
548.214 km
Speed
7.589 km/s
True Right ascension
23h 47m 46s
True Declination
0° 00' 00"
Sunlit
Object was in full shadow at epoch
Visualization orbit readout
Latitude
Unknown
Longitude
Unknown
Altitude
Unknown
Speed
Unknown
Apparent Right ascension
Unknown
Apparent Declination
Unknown
Sunlit
N/A
Visualization observer readout
Local Sidereal Time
06:09:43
Azimuth
Unknown
Elevation
Unknown
Doppler factor
Unknown
Orbital elements
Apogee altitude
548.364 km
Perigee altitude
546.512 km
Semi-major axis
6,925.575 km
Eccentricity
0.00013
Inclination
53.0551°
RAAN
356.9436°
Arg. of periapsis
100.5369°
True anomaly
259.56203°
Mean anomaly
259.5771°
Eccentric anomaly
259.56957°
Mean motion
3.76582 °/min
Orbital period
95.6 mins
BSTAR
0.00078173
Loading maneuver chart data...
Computing Atmospheric mass density...
Loading historical data...
Loading historical data...
Loading historical data...
Loading historical data...
Loading historical data...
Loading historical data...
Loading historical data...

Documentation

Showing up to 5 results
|